Location: Beetenbrück
(52.8113°N, 9.5946°E)
Time: 22:42:32
(UTC+00:00)

RESURS DK-1 - Pass Details

Date: 14 April 2026
Orbit: 524 x 530 km, 69.9° (Epoch: 12 May)

Event Time Altitude Azimuth Distance (km) Brightness Sun altitude
Exits shadow 20:17:47 23° 85° (E) 1,169 3.6 -16.3°
Drops below altitude 10° 20:20:02 10° 54° (NE) 1,776 4.8 -16.5°
Sets 20:22:28 0° 42° (NE) 2,672 5.9 -16.8°
